Пашня

Россия / Республика Коми     63°20′17″N   56°29′53″E
темп.,
°C
ветер,
м/с
пор.,
м/с
влажн.,
%
обл.,
%
осадки,
мм/ч
давл.,
гПа
погр.,
м
24 октября, вс
вс2400:000сз4769100 0.0 1001979
03:00−1зсз267790 0.0 1003379
06:00−4з25978 0.0 1005133
09:00−2з128351 0.0 1007244
12:000зсз1276100 0.0 1007454
15:00−2ссз119099 0.0 100810
18:00−4ссз0197100 0.0 100812
21:00−4ссз1198100 0.0 100837
25 октября, пн
пн2500:00−3зсз1394100 0.0 1008142
03:00−3зсз2492100 0.0 1008243
06:00−3з2591100 0.0 1008287
09:00−2з3582100 0.1 1009483
12:00−1з3579100 0.3 1009790
15:00−2зсз4773100 0.3 1009928
18:00−3зсз279195 0.3 1010569
21:00−3зсз379399 0.7 1011493
26 октября, вт
вт2600:00−3зсз369290 0.3 1011402
03:00−4зсз259486 0.4 1012304
06:00−4зсз249379 0.1 1012278
09:00−3сз238295 0.2 1013524
12:00−2сз127096 0.0 1013792
15:00−4з11825 0.1 101310
18:00−5зюз138789 0.0 101481
21:00−6з14905 0.0 101498
27 октября, ср
ср2700:00−6зюз139290 0.0 101575
03:00−5юз118794 0.0 101552
06:00−5ю1387100 0.0 101589
09:00−4ююв2577100 0.0 1014290
12:00−3юв3673100 0.0 1013485
15:00−3вюв3883100 0.1 1010604
18:00−3вюв41194100 1.6 1008513
21:00−3вюв41094100 3.1 1005453
28 октября, чт
чт2800:00−2вюв3996100 1.9 1002362
03:00−1юв3998100 4.2 1000524
06:00−1юв3898100 2.2 998486
09:00−2вюв4996100 4.4 998390
12:00−2в3996100 2.3 998463
15:00−4св4896100 4.9 1000473
18:00−5св41095100 1.9 1003670
21:00−5ссв4994100 2.6 1006591